Timeline UpdatesTrip UpdatesNews PostsPvt PostsTravel TipsAdmin PostsConv PostsFollowed PostsChat RequestsBlog PostsPNR Posts

Disclaimer
Search
 
 
Fri Aug 22, 2014 11:25:11 ISTHomeTrainsΣChainsAtlasPNRForumGalleryNewsFAQTripsMembersLoginFeedback
No Recent News for this Train
Other Trains in the News **new
Latest...
.
Thu Jul 24, 2014 (11:10PM)
⇐ Return Journey: Train# 19019

19020/Dehradun - Mumbai Bandra Terminus Express

Apr 15 2014 (1:35PM)
Change Departure Station:
Change Arrival Station:
Post a Train Travel TipPost a Train Travel Tip **new
Post a Comment/Question/Picture/VideoPost a Comment/Question/Picture/Video
Pantry/Catering
✕ NO Pantry Car
✓ Catering Avbl
Loco/Rake Reversals
SRE/Saharanpur Junction (6); LRJ/Laksar Junction (4);
RSA - Rake Sharing
Rake/Coach Composition
LOCO-SLR-HCPV-GEN-GEN-AB1-S1-S2-S3-S4-S5-S6-S7-S8-S9-SLR
Loco
GZB WAP-7 NZM-BDTS. ddn to nzm tkd wdp 3a. By Er...
Read more...
Ankit Shotra Bhagat Entry# 595554
News    PNR    Forum    Time-Table    Availability    Fare Chart    Map    Arr/Dep History    Trips    Gallery    ΣChains    X/O    Timeline    
Travel Time: 20h 3m    36 halts    Distance: 760 km    Avg Speed: 37 km/hr
Type: Mail/Express
Zone: WR/Western
Departs @ 10:35 (Avg on time)
Platform# 2
SMTWTFS
Dehradun/DDN 
Arrives @ 06:38 +1 night (Avg 20m late)
Platform# ???
SMTWTFS
Keshorai Patan/KPTN 

36 halts. 112 intermediate Stations between Dehradun and Keshorai Patan

Show ALL intermediate Stations  Show Old Time-Table

#CodeStation NameX/OArrivesAvgDepartsAvgHaltPFDay#KmSpeedElevZoneAddress
1DDN»Dehradun (4)»  -10:35+0210.041648mNRDehradun, Uttarakhand
2DWODoiwala  11:04+411:06+42m--119.839484mNRDehradun, Uttarakhand
3RWLRaiwala Junction (2)X  11:38+311:40+172m2140.520361mNRRishikesh, Uttarakhand
4MOTCMotichur (2)X  12:00+812:02+102m1147.121312mNRHaridwar, Uttarakhand
5HWHaridwar Junction (9)X  12:15+1112:45+1230m3151.730294mNRHaridwar, Uttarakhand
6JWPJwalapur  12:53+1312:55+132m--155.621292mNRHaridwar, Uttarakhand
7LRJLaksar Junction (4)X14:00+714:25+625m--178.659238mNRLaksar, Uttarakhand
8RKRoorkee (3)X  14:43+814:45+112m3196.442264mNRRoorkee - 247667, Uttarakhand
9SRESaharanpur Junction (6)X15:35+816:05+230m41131.146276mNRSaharanpur, Uttar Pradesh
10DBDDeoband (2)  16:50+716:52+82m21165.351258mNRSaharanpur, Uttar Pradesh
11MOZMuzaffarnagar (3)X  17:20+517:22+212m21189.367247mNRMuzaffarNagar, Uttar Pradesh
12KATKhatauli (2)  17:42+2317:44+232m11211.573239mNRKhatauli, Uttar Pradesh
13MUTMeerut Cantt. (2)  18:08+2718:10+272m11240.610230mNRMeerut, Uttar Pradesh
14MTCMeerut City Junction (6)X18:35+1219:20+845m41244.983229mNRMeerut, Uttar Pradesh
15MDNRModinagar (2)X  19:34+1419:36+142m21264.467221mNRGhaziabad, Uttar Pradesh
16MUDMuradnagar (2)  19:45+1519:47+152m21274.547220mNRGhaziabad, Uttar Pradesh
17GZNNew Ghaziabad (2)X  20:02+720:04+72m21286.214213mNRGhaziabad, Uttar Pradesh
18GZBGhaziabad Junction (6)X  20:30+420:32+52m41292.145217mNRGhaziabad, Uttar Pradesh
19SBBSahibabad Junction (5)X  20:41+1120:43+112m--1298.830209mNRGhaziabad, Uttar Pradesh
20NZMDelhi Hazrat Nizamuddin (7)O21:15+1221:55+940m11314.925209mNRNew Delhi 110013, Delhi NCT
21TKDTuglakabad (4)XO  22:18+1022:20+132m--1324.628213mNRNear Tughlakabad Metro Station, Delhi NCT
22FDBFaridabad (4)  22:44+722:46+92m31335.740206mNRold Faridabad, Haryana
23BVHBallabgarh (5)O  22:58+1023:00+112m--1343.735203mNRFaridabad, Haryana
24PWLPalwal (8)X  23:36+123:38+42m--1364.985200mNRPalwal, Haryana
25KSVKosi Kalan (3)O  00:08+1600:10+162m22407.429189mNCRKosi Kalan, Uttar Pradesh
26MTJMathura Junction (10)X  01:35-101:45+110m32448.880179mNCRMathura, Uttar Pradesh
27BTEBharatpur Junction (5)  02:10+802:15+75m--2482.484174mWCRBharatpur, Rajasthan
28BXNBayana Junction (3)XO  02:45+702:47+102m--2524.474198mWCRBayana, Rajasthan
29FSPFateh SinghpuraO  03:03+903:05+112m--2544.079223mWCRState Highway 1, Rajasthan
30HANHindaun City (2)  03:15+1303:17+152m--2557.268230mWCRKarauli, Rajasthan
31SMBJShri Mahabirji (3)O  03:26+1703:28+172m--2567.449240mWCRKarauli, Rajasthan
32GGCGangapur City (3)  04:10+304:20+510m--2601.564270mWCRGangapur, Rajasthan
33NNWNarayanpur Tatwara (2)X  04:36+704:38+62m--2618.484256mWCRSawai Madhopur, Rajasthan
34MLZMalarnaX  04:50+904:52+92m--2635.265236mWCRSawai Madhopur, Rajasthan
35SWMSawai Madhopur Junction (4)XO  05:20+705:25+85m--2665.495266mWCRSawai Madhopur, Rajasthan
36IDGIndargarh Sumerganj Mandi (2)X  05:48+1305:50+162m--2701.782247mWCRIndargarh, Rajasthan
37LKELakheri (3)  05:58+1806:00+182m--2712.774228mWCRBundi, Rajasthan
38KPTN•Keshorai Patan•X  06:38+2006:40+222m--2759.860243mWCRSH 33, Rajasthan
39GQLGurla  06:48+2706:50+302m--2767.78251mWCRSH 33, Rajasthan
40KOTAKota Junction (5)X07:30+607:50+1220m22773.151256mWCRKota, Rajasthan
41DKNTDakaniya Talav (2)  08:01+1708:03+192m22782.485278mWCRKota, Rajasthan
42DARADaraX  08:30+2208:32+232m--2820.655354mWCRDara, Rajasthan
43MKXMorak (2)X  08:48+2308:50+232m--2835.342337mWCRMorak, Rajasthan
44RMARamganj Mandi Junction (3)  09:03+2009:05+232m--2844.457358mWCRRamganj Mandi, Rajasthan
45JHWJhalawar Road (3)  09:18+2209:20+232m--2856.755361mWCRJhalawar City, Rajasthan
46BWMBhawani Mandi (3)X  09:38+1909:40+292m--2873.276384mWCRBhawani Mandi, Madhya Pradesh
47GOHGaroth (2)X  09:58+3110:00+312m12895.926441mWCRMadhya Pradesh 458880, Madhya Pradesh
48SGZShamgarh (3)X  10:25+1810:30+245m--2906.767463mWCRMandsaur, Madhya Pradesh
49SVASuwasra (2)  10:42+2510:44+262m--2920.166450mWCRSuwasra, Madhya Pradesh
50CMUChau Mahla (3)  10:58+2611:00+292m12935.535426mWCRJhalawar, Rajasthan
51THURThuriaX  11:24+1711:26+182m--2949.721430mWCRMDR 45, Madhya Pradesh
52VMAVikramgarh Alot (2)X  11:48+711:50+122m12957.361443mWCRKota Division, Madhya Pradesh
53LNRLuni Richha  12:03+1012:05+112m--2970.628471mWCRAlote, Madhya Pradesh
54MEPMahidpur Road  12:28+112:30+42m--2981.229493mWCRGogapur, Madhya Pradesh
55NADNagda Junction (4)  13:05+213:15+310m--2998.375468mWRNagda, Madhya Pradesh
56KUHKhachrod (2)  13:26+913:28+92m--21012.157497mWRUjjain, Madhya Pradesh
57RNHRunkheraX  13:39+813:41+72m--21022.663478mWRUjjain, Madhya Pradesh
58BODBangrodX  13:48+813:50+72m--21029.924484mWRRatlam, Madhya Pradesh
59RTMRatlam Junction (7)X  14:15+514:35+820m421039.777495mWRRatlam, Madhya Pradesh
60RTIRaoti (2)  14:56+1514:58+152m--21066.671409mWRState Highway 39A, Madhya Pradesh
61BOGBhairongarh (2)  15:08+1715:10+162m--21078.551374mWRBhairongarh Railway Station, Madhya Pradesh
62BMIBamnia (2)  15:17+1815:19+172m--21084.542392mWRBamnia, Madhya Pradesh
63AGRAmargarh (2)  15:25+1815:27+172m--21088.657410mWRSH 39A, Madhya Pradesh
64PCNPanch Pipila (2)  15:37+1715:39+172m--21098.184369mWRSH 39A, Madhya Pradesh
65THDRThandla Road (2)  15:49+2015:51+202m--21112.060317mWRJhabua, Madhya Pradesh
66MGNMeghnagar (3)  15:59+2116:01+212m--21120.073317mWRJhabua, Madhya Pradesh
67ANASAnas (2)  16:13+2216:15+212m--21134.679288mWRMadhya Pradesh 389154 ?, Madhya Pradesh
68BIOBordi (2)  16:21+2316:23+222m--21142.553289mWRNational Highway 59, Gujarat
69DHDDahod (3)  16:35+2616:40+275m--21153.176313mWRDahod, Gujarat
70LMKLimkheda  17:06+3117:08+312m--21186.168205mWRLimkheda, Gujarat
71PPDPiplod Junction  17:15+3117:17+302m--21194.079209mWRPiplod, Gujarat
72SATSant Road (2)X  17:26+3217:28+312m221205.920169mWROrwara, Gujarat
73GDAGodhra Junction (3)X  18:30+418:35+75m1021226.265122mWRGodhra, Gujarat
74KRSAKharsaliya (2)  18:45+1118:47+112m--21237.185107mWRPanchmahal, Gujarat
75DRLDerolX  18:56+1218:58+122m121249.86881mWRKalol, Gujarat
76CPNChampaner Road JunctionX  19:09+1319:11+132m--21262.37578mWRPanchmahal, Gujarat
77SMLASamlaya Junction (3)X  19:20+1219:22+122m--21273.54867mWRVadodara, Gujarat
78BRCVadodara Junction (7)  19:55+1920:05+1910m321300.18936mWRVadodara 390005, Gujarat
79MYGMiyagam Karjan (2)  20:25+2520:27+252m--21330.07229mWRKarjan, Gujarat
80BHBharuch Junction (5)  21:01+1921:03+192m421370.76219mWRBharuch, Gujarat
81AKVAnkleshwar Junction (4)X  21:12+2121:14+212m221380.07419mWRAnkleshwar, Gujarat
82KSBKosamba Junction (3)X21:29+2621:31+222m--21398.53230mWRKosamba, Gujarat
83STSurat (4)X  22:30+1222:38+118m221429.97119mWRSurat 395001, Gujarat
84NVSNavsari (3)  23:03+1923:05+192m--21459.57914mWRNavsari, Gujarat
85BIMBilimora Junction (4)X  23:21+2623:23+262m--21480.73611mWRBilimora, Gujarat
86BLValsad (3)  23:53+2023:55+252m321498.63815mWRValsad, Gujarat
87VAPIVapi (3)X  00:36+1600:38+182m--31524.95727mWRVapi, Gujarat
88PLGPalghar (3)  02:04+2002:06+232m--31606.43719mWRPalghar, Maharashtra
89VRVirar (8)  02:56+1102:58+112m--31637.5486mWRDist. Palghar, Maharashtra
90BVIMumbai Borivali (8)  03:30+703:32+92m531663.32319mWRMumbai - 400092, Maharashtra
91BDTSMumbai Bandra Terminus (5)  04:20+3-131682.1-4mWRMumbai 400050, Maharashtra
Scroll to Top
Scroll to Bottom